Terug naar catalogus

COSMOS 619

ActiefMilitairLEO
NORAD 6987·PAYLOAD·🇷🇺 Russia

Gelanceerd Dec 19, 1973 vanaf Plesetsk Cosmodrome

Loading…

Volgende Passages (komende 24 uur)

TLE

VersSource: Space-Track

Epoch: Sep 14, 2026, 06:29 UTC

1 06987U 73104C   26257.27056632 -.00000012  00000-0  26486-4 0  9992
2 06987  74.0264 104.1093 0040929 215.7698 144.0611 12.52234793410746

Volg COSMOS 619 in realtime met AllMySat

Download on the App Store